Regional Weather Roundup
Issued by NWS

Home | Current Version | Previous Version | Graphics & Text | Print | Product List | Glossary On
Versions: 1 2 3 4 5 6 7 8 9 10 11 12 13 14 15 16 17 18 19 20 21 22 23 24 25 26 27 28 29 30 31 32 33 34 35 36 37 38 39 40 41 42 43 44 45 46 47 48 49 50
000
ASUS43 KTOP 290959
RWRKS

WEATHER ROUNDUP FOR KANSAS
NATIONAL WEATHER SERVICE GOODLAND KS
500 AM CDT SAT AUG 29 2015

NOTE:  "FAIR" INDICATES FEW OR NO CLOUDS BELOW 12,000 FEET WITH NO
SIGNIFICANT WEATHER AND/OR OBSTRUCTIONS TO VISIBILITY.

KSZ001>006-013>018-027>032-041>047-291100-
NORTHWEST KANSAS

CITY           SKY/WX    TMP DP  RH WIND       PRES   REMARKS
GOODLAND       CLEAR     57  55  93 W7        30.17S
HAYS           CLEAR     61  52  72 NW7       30.07S
HILL CITY      CLEAR     59  57  93 CALM      30.08S
RUSSELL        CLEAR     60  59  96 W3        30.05R
$$

KSZ061>065-074>080-084>089-291100-
SOUTHWEST KANSAS

CITY           SKY/WX    TMP DP  RH WIND       PRES   REMARKS
DODGE CITY     CLEAR     58  57  97 N7        30.09S
ELKHART          N/A     63  56  78 NE5         N/A
GARDEN CITY    CLEAR     59  56  89 N6        30.10F
GREAT BEND     CLEAR     63  55  77 NW8       30.06R
LIBERAL        CLEAR     70  61  73 NE8       30.11S
PRATT          CLEAR     63  61  94 CALM      30.05F
$$

KSZ066>073-081>083-090>101-291100-
SOUTHEAST KANSAS

CITY           SKY/WX    TMP DP  RH WIND       PRES   REMARKS
CHANUTE        PTCLDY    69  67  93 SW3       29.95F
COFFEYVILLE    PTCLDY    69  67  93 SW5       29.95F
HUTCHINSON     CLEAR     63  61  93 N3        30.02S
NEWTON         CLEAR     64  59  82 NW6       30.03R
PARSONS        MOCLDY    69  67  93 CALM      29.96F
WICHITA INTL   CLEAR     70  64  81 N8        29.99R
WICHITA JABRA  CLEAR     66  64  93 N7        29.99S
$$

KSZ007>012-019>026-033>040-048>060-102>105-291100-
NORTHEAST KANSAS

CITY           SKY/WX    TMP DP  RH WIND       PRES   REMARKS
CONCORDIA      MOCLDY    62  61  96 NW6       30.02R
EMPORIA        CLEAR     65  63  93 CALM      29.98R
LAWRENCE       MOCLDY    67  65  93 NW6       29.96R
MANHATTAN      CLOUDY    67  63  87 CALM      29.99R
OLATHE IND     CLOUDY    70  68  93 W7        29.96R
OLATHE EXE     CLOUDY    69  68  96 SW3       29.95R
SALINA         CLEAR     65  61  87 NW6       30.01S
TOPEKA BILLARD CLEAR     64  62  93 W5        29.97R
TOPEKA FORBES  CLEAR     65  61  87 NW8       29.97R
$$



USA.gov is the U.S. government's official web portal to all federal, state and local government web resources and services.